Wind_Speed
26 25 25 25 25 25 25 24 23 22 21 19 18 17 16 15 14 14 13 13 13 12 12 11 11 11 11 11 11 11 11 11 11 11 11 11 11 11 11 11 11 11 11 11
26 26 27 26 26 26 26 25 25 24 22 19 18 17 17 16 15 14 14 13 13 13 12 11 11 10 11 11 12 11 11 11 12 12 11 11 11 11 11 11 12 11 11 11
26 27 28 28 26 27 27 26 25 25 22 21 20 19 18 17 15 15 15 14 14 13 13 12 12 11 11 11 12 12 12 11 12 12 12 12 12 11 11 11 11 11 11 12
25 27 29 27 26 26 26 26 26 25 23 22 21 20 20 19 17 16 16 15 15 13 13 13 13 12 12 11 12 12 12 12 12 12 12 12 12 12 12 11 11 11 12 12
25 27 27 27 25 25 26 26 26 25 23 22 21 21 21 21 20 18 18 17 16 15 14 14 13 13 13 12 11 12 13 13 13 13 12 12 12 13 12 12 11 12 12 13
25 26 26 25 25 24 26 26 26 25 23 22 23 22 21 21 21 20 18 18 18 16 15 14 14 14 14 13 12 12 12 13 13 13 13 13 12 13 13 13 13 13 13 13
25 26 25 23 24 25 26 25 25 24 24 23 23 22 21 22 21 20 19 19 18 18 17 16 15 15 14 14 13 13 13 13 13 13 13 13 13 13 13 14 14 14 14 14
25 26 25 23 24 25 24 25 25 25 25 24 23 23 22 22 22 21 20 19 18 18 17 17 16 16 16 15 15 14 14 15 15 14 14 14 13 13 13 14 14 14 15 15
27 27 25 23 24 25 25 25 25 26 26 25 24 24 24 23 22 21 20 19 19 19 18 18 18 17 17 17 16 16 15 15 16 16 15 15 15 15 15 14 14 15 15 16
27 28 27 25 26 26 26 25 25 26 27 26 26 26 26 25 24 23 21 20 20 20 19 19 19 18 18 18 18 17 17 16 16 16 17 17 16 16 15 15 14 15 15 16
27 28 28 27 27 27 27 27 27 27 27 26 26 26 26 26 25 24 23 22 22 21 20 20 19 19 19 19 18 18 18 18 17 17 17 18 17 17 17 16 16 16 17 17
28 28 28 28 27 27 27 26 27 27 27 26 27 27 27 27 26 25 24 24 23 23 22 21 21 20 20 20 19 19 19 19 18 18 18 18 18 18 18 18 18 18 18 18
28 28 28 29 28 27 27 27 26 27 27 26 26 27 28 28 28 27 26 25 25 24 23 22 22 21 21 21 21 20 20 20 19 19 19 19 19 19 19 19 19 18 18 18
28 28 29 29 28 28 28 27 27 27 27 27 27 28 29 29 29 28 27 26 26 25 24 23 23 23 23 22 22 22 21 21 20 20 20 20 20 20 20 20 19 19 19 19
28 29 30 30 29 28 28 28 28 27 27 28 28 28 29 30 29 28 28 28 27 26 26 25 24 24 24 24 23 23 23 22 22 22 21 21 21 21 21 21 21 21 21 21
28 28 30 30 30 29 29 29 29 28 28 28 29 29 30 30 30 29 29 29 28 27 27 26 25 24 24 24 24 24 23 23 23 23 23 22 22 22 22 22 22 22 22 22
28 28 29 30 30 31 30 29 30 29 29 29 29 29 30 31 30 30 29 29 29 28 28 27 26 25 24 25 24 24 24 24 24 23 24 24 23 23 23 23 23 23 23 23
27 28 29 29 29 29 29 28 29 29 29 29 29 29 29 30 30 29 29 29 29 28 28 27 26 26 25 25 25 24 24 24 24 24 24 24 24 24 24 24 24 24 23 24
28 28 29 30 30 29 29 28 29 29 29 28 28 29 30 30 31 30 30 30 30 29 28 27 27 26 26 26 25 25 25 25 25 25 25 25 24 24 25 25 25 25 25 25
29 29 30 30 30 29 29 30 29 29 30 30 29 30 30 30 31 30 30 30 30 30 30 29 28 27 27 27 27 26 26 26 26 26 26 26 25 25 26 26 27 27 27 27
28 29 29 30 29 28 28 28 28 28 29 30 30 30 30 30 30 31 31 30 30 31 31 30 29 29 29 28 28 28 28 28 28 27 27 28 28 28 28 29 28 28 28 28
27 27 27 28 28 28 28 27 27 27 28 29 30 31 31 31 31 31 31 30 30 31 31 31 30 30 30 29 29 29 29 29 29 29 29 29 29 29 28 28 29 29 29 29
24 25 25 26 26 27 27 27 27 27 28 28 29 30 30 30 30 31 30 30 29 30 31 31 31 30 30 30 30 30 29 29 30 29 29 29 29 29 29 29 29 29 29 29
22 23 24 24 25 26 27 27 26 26 27 28 29 29 29 29 30 30 29 29 29 29 30 30 30 30 30 29 30 30 30 30 30 30 29 28 29 29 29 29 29 29 30 30
21 23 24 24 24 25 26 27 27 27 27 27 28 29 29 28 28 29 29 29 29 29 29 30 30 30 30 30 29 29 29 29 29 29 29 29 29 29 29 29 28 29 29 30
22 23 24 24 24 25 26 27 27 28 27 27 27 27 28 28 29 29 29 29 29 29 29 29 30 30 30 29 29 28 29 29 29 28 28 29 29 29 28 28 28 29 30 30
22 22 23 24 24 25 26 27 28 29 29 28 28 28 28 29 29 30 30 29 29 29 29 29 29 29 28 29 29 29 29 29 29 29 28 29 29 29 29 29 30 30 30 30
Wind_Direction
246 243 240 241 241 240 240 243 247 248 248 249 251 253 253 256 259 260 262 261 262 262 262 262 260 257 252 250 246 243 239 236 237 233 230 229 229 230 231 230 228 228 229 231
246 244 241 240 240 239 240 243 246 246 245 246 249 249 250 252 254 254 255 253 256 260 261 259 256 254 251 248 242 240 238 234 235 235 231 230 230 229 230 230 230 232 231 232
248 245 244 240 239 241 240 241 244 245 244 243 244 246 248 248 249 249 248 248 252 257 259 257 254 252 253 247 241 237 236 236 236 234 231 229 231 232 231 231 231 232 233 234
251 248 247 243 240 241 242 241 242 245 245 245 244 244 247 247 245 245 246 246 248 251 253 252 249 249 249 247 242 238 238 239 236 235 232 228 229 231 231 230 231 234 236 235
251 250 250 246 242 241 242 241 242 244 247 247 243 243 245 246 245 243 243 242 244 248 250 249 248 249 247 243 242 241 241 240 235 235 234 233 233 231 231 231 232 234 233 235
250 251 251 248 245 244 243 241 240 242 245 245 242 241 243 245 245 244 242 240 242 245 247 248 247 246 245 242 241 242 240 237 234 233 233 233 234 234 235 236 236 236 235 236
250 251 251 248 247 246 243 240 239 240 242 242 241 241 241 243 244 245 241 238 240 243 244 244 244 243 243 241 240 240 238 235 235 235 233 234 236 238 240 239 240 239 238 238
249 249 250 249 247 246 243 239 238 239 240 241 240 240 240 241 243 244 243 239 239 241 242 243 243 242 242 240 240 240 239 238 237 237 237 236 238 240 242 243 242 240 241 241
248 249 248 248 248 245 242 239 238 238 239 240 241 241 240 241 242 242 243 241 239 241 242 242 242 242 241 240 239 240 240 240 241 240 240 241 242 245 245 244 245 244 244 244
249 246 246 248 246 242 242 241 240 240 240 240 240 240 239 240 240 240 241 240 239 240 242 241 241 242 242 240 239 241 242 242 243 244 243 242 245 247 247 247 249 249 249 247
250 247 247 247 246 243 243 244 243 241 241 241 241 240 239 239 240 239 238 238 238 238 241 242 241 241 241 240 240 241 242 243 245 246 245 243 244 247 248 249 251 251 251 249
250 247 247 247 245 244 244 245 245 243 242 242 242 240 239 238 239 238 236 236 236 237 239 241 241 241 240 240 240 242 244 244 246 248 246 244 243 246 247 250 251 250 252 252
250 249 249 247 246 245 244 244 245 245 243 243 242 241 239 237 237 236 235 235 236 237 238 239 240 241 241 241 241 243 244 244 246 247 247 246 247 249 250 251 252 253 254 254
250 250 248 245 244 243 242 244 245 246 245 244 242 241 238 236 235 235 235 235 236 237 237 238 239 240 242 242 242 242 242 244 245 246 248 248 248 249 250 252 253 253 255 256
248 249 248 245 243 242 242 242 243 243 244 242 241 240 237 234 234 235 235 236 236 237 237 238 240 241 242 242 243 244 244 245 246 247 248 249 250 250 251 252 252 254 256 257
248 249 249 248 246 246 245 243 242 242 243 242 241 240 238 235 233 234 235 236 236 238 238 238 239 241 242 242 244 245 246 247 247 248 248 249 251 252 253 253 253 255 256 257
248 248 247 248 247 246 246 243 241 241 241 241 240 240 238 234 232 233 235 236 235 236 236 237 239 240 241 242 244 245 247 249 249 250 251 252 251 251 252 253 255 256 256 258
249 248 248 247 247 246 244 242 241 239 239 240 239 238 237 233 232 234 234 234 235 235 236 236 237 240 241 242 243 245 247 249 250 252 253 254 254 254 254 255 257 258 258 259
247 248 248 246 246 246 242 241 239 237 237 238 238 237 236 233 231 232 233 232 233 234 236 236 238 240 241 243 244 246 247 249 251 252 254 255 254 255 256 257 259 259 259 260
247 248 247 246 246 246 242 238 237 237 236 235 237 237 234 233 232 232 233 232 232 234 237 238 239 241 243 243 244 246 248 249 251 253 254 255 256 257 258 259 259 259 260 262
250 250 248 246 244 243 240 236 234 234 234 235 235 234 232 233 233 233 233 233 234 236 237 237 238 240 243 244 245 247 249 251 252 254 255 255 256 258 260 260 261 261 262 264
252 249 249 246 242 240 237 234 232 233 234 235 234 233 233 235 236 234 233 233 233 234 235 237 239 241 243 245 246 247 249 251 253 255 257 257 257 258 260 261 263 263 263 265
252 248 248 245 239 236 234 233 232 233 233 234 234 234 235 235 235 233 232 232 233 235 236 237 239 241 243 245 249 251 251 252 253 255 257 257 258 259 260 262 263 263 265 266
249 246 246 243 238 235 234 233 231 231 232 232 232 232 233 233 233 233 234 234 235 236 238 239 241 243 244 247 251 252 252 253 254 255 256 257 258 260 262 263 265 265 265 267
249 246 245 242 237 233 232 231 231 230 229 229 230 231 231 232 233 235 234 233 235 237 239 241 242 243 245 247 249 250 251 253 254 255 256 257 259 262 264 264 264 265 265 266
252 249 246 242 239 236 234 233 231 230 230 230 230 229 231 234 236 236 236 236 238 239 240 242 243 244 246 246 247 249 251 251 253 257 259 259 260 262 263 263 263 265 267 268
252 250 248 244 240 237 235 233 232 231 231 232 232 231 235 237 238 239 239 239 240 241 242 242 243 244 246 248 249 250 252 253 254 258 259 260 260 260 261 263 264 266 268 268
Height
5785 5787 5790 5792 5795 5797 5799 5801 5804 5807 5809 5811 5812 5814 5815 5815 5816 5816 5816 5817 5817 5817 5818 5818 5818 5819 5819 5820 5820 5821 5822 5823 5824 5825 5826 5827 5828 5830 5831 5832 5834 5835 5836 5837
5777 5779 5782 5784 5788 5790 5792 5795 5797 5799 5802 5805 5806 5808 5809 5810 5811 5811 5812 5813 5813 5814 5814 5815 5815 5816 5816 5817 5818 5819 5820 5820 5821 5822 5823 5825 5826 5827 5828 5830 5831 5832 5833 5835
5769 5771 5773 5777 5781 5783 5786 5788 5791 5793 5797 5799 5800 5802 5803 5805 5806 5807 5808 5809 5809 5810 5811 5811 5812 5813 5813 5814 5815 5816 5817 5818 5819 5820 5821 5822 5823 5825 5826 5827 5828 5829 5831 5832
5761 5764 5765 5772 5774 5776 5779 5781 5784 5787 5790 5792 5794 5796 5797 5799 5801 5802 5803 5804 5805 5806 5807 5808 5808 5809 5810 5811 5811 5813 5814 5815 5816 5817 5818 5819 5821 5822 5823 5824 5825 5827 5828 5829
5754 5755 5758 5763 5766 5768 5771 5774 5777 5780 5783 5785 5787 5789 5790 5793 5794 5796 5798 5799 5800 5801 5803 5804 5805 5806 5806 5807 5808 5810 5811 5812 5813 5814 5815 5816 5818 5819 5820 5821 5822 5824 5825 5826
5747 5748 5751 5757 5759 5760 5764 5767 5770 5772 5775 5778 5780 5783 5785 5787 5788 5790 5792 5793 5795 5796 5798 5800 5801 5802 5803 5804 5805 5806 5807 5808 5810 5811 5812 5814 5815 5816 5817 5818 5819 5820 5822 5823
5739 5740 5744 5749 5751 5753 5758 5761 5763 5765 5768 5771 5773 5777 5779 5781 5783 5784 5786 5788 5790 5791 5793 5795 5797 5798 5799 5800 5802 5803 5804 5805 5807 5808 5809 5810 5811 5812 5813 5814 5816 5817 5818 5819
5732 5734 5740 5742 5743 5747 5750 5753 5756 5758 5761 5764 5767 5770 5772 5775 5776 5779 5780 5782 5784 5787 5789 5791 5792 5794 5795 5797 5798 5799 5801 5802 5803 5805 5806 5807 5808 5809 5810 5811 5812 5813 5814 5815
5725 5729 5732 5733 5736 5739 5742 5745 5748 5751 5754 5757 5760 5763 5766 5768 5770 5773 5775 5777 5779 5781 5783 5785 5787 5789 5791 5792 5794 5796 5797 5798 5799 5801 5802 5803 5804 5805 5806 5807 5808 5809 5810 5811
5717 5720 5723 5725 5727 5731 5734 5737 5740 5743 5747 5749 5752 5755 5758 5761 5764 5766 5769 5771 5773 5776 5778 5780 5782 5784 5786 5787 5789 5791 5792 5794 5795 5797 5798 5799 5800 5801 5802 5803 5804 5805 5805 5806
5708 5712 5714 5717 5720 5723 5727 5730 5733 5736 5739 5742 5745 5748 5751 5754 5757 5760 5762 5765 5767 5770 5772 5774 5777 5779 5781 5782 5784 5786 5787 5789 5791 5792 5793 5794 5795 5797 5798 5799 5800 5800 5801 5802
5702 5705 5707 5710 5712 5716 5719 5722 5725 5728 5731 5734 5737 5740 5743 5746 5749 5753 5756 5758 5761 5763 5766 5769 5771 5773 5775 5777 5779 5781 5782 5784 5786 5787 5788 5789 5790 5791 5792 5794 5794 5795 5796 5797
5694 5696 5699 5701 5705 5708 5711 5714 5717 5720 5723 5726 5729 5731 5735 5738 5741 5745 5748 5751 5754 5757 5760 5762 5765 5767 5769 5771 5774 5776 5777 5779 5780 5782 5783 5784 5785 5786 5787 5788 5789 5790 5790 5791
5685 5688 5691 5694 5697 5700 5703 5706 5709 5712 5715 5717 5720 5723 5726 5730 5733 5737 5741 5744 5747 5750 5753 5756 5758 5761 5763 5766 5768 5770 5771 5773 5775 5776 5777 5778 5779 5780 5781 5782 5783 5784 5785 5785
5677 5680 5682 5685 5688 5691 5694 5697 5700 5703 5706 5709 5712 5715 5718 5721 5725 5729 5733 5736 5740 5743 5746 5749 5752 5754 5757 5759 5761 5763 5765 5767 5769 5770 5771 5772 5773 5774 5775 5776 5777 5778 5779 5779
5669 5671 5673 5676 5679 5682 5685 5688 5691 5694 5697 5700 5703 5706 5709 5713 5717 5721 5725 5728 5732 5736 5739 5742 5745 5748 5750 5752 5755 5757 5759 5760 5762 5763 5765 5766 5767 5768 5769 5770 5770 5771 5772 5773
5660 5662 5664 5667 5670 5673 5676 5679 5682 5685 5688 5691 5694 5697 5701 5704 5708 5713 5717 5720 5724 5728 5731 5734 5738 5740 5743 5745 5748 5750 5752 5754 5755 5757 5758 5759 5760 5761 5762 5763 5763 5764 5765 5766
5651 5653 5655 5657 5660 5664 5667 5670 5673 5676 5679 5682 5686 5689 5692 5696 5700 5705 5708 5712 5716 5720 5723 5727 5730 5732 5735 5738 5740 5743 5745 5746 5748 5750 5751 5752 5753 5754 5755 5756 5756 5757 5758 5758
5642 5644 5646 5648 5651 5655 5658 5661 5664 5668 5671 5674 5677 5680 5684 5688 5692 5696 5700 5704 5708 5712 5716 5719 5722 5725 5728 5730 5733 5735 5737 5739 5741 5742 5744 5745 5746 5747 5747 5748 5749 5750 5750 5751
5633 5635 5637 5640 5643 5646 5649 5652 5656 5659 5663 5666 5669 5673 5676 5680 5684 5688 5692 5696 5700 5704 5707 5711 5714 5717 5720 5723 5725 5727 5729 5731 5733 5734 5736 5737 5738 5739 5740 5740 5741 5742 5742 5743
5625 5627 5629 5632 5635 5638 5641 5644 5648 5651 5655 5658 5662 5665 5669 5673 5676 5680 5684 5688 5692 5695 5699 5702 5705 5709 5712 5714 5717 5719 5721 5723 5725 5726 5727 5728 5729 5730 5731 5732 5732 5733 5733 5733
5617 5619 5621 5624 5627 5630 5633 5636 5640 5643 5647 5650 5654 5658 5661 5665 5668 5672 5675 5679 5683 5686 5690 5694 5697 5700 5703 5705 5708 5710 5712 5714 5715 5717 5718 5719 5720 5721 5721 5722 5723 5723 5723 5724
5610 5612 5614 5616 5619 5622 5625 5629 5632 5636 5639 5643 5647 5650 5654 5657 5660 5664 5668 5671 5675 5678 5682 5685 5689 5691 5694 5696 5699 5701 5703 5705 5706 5707 5709 5710 5711 5711 5712 5712 5713 5713 5713 5713
5604 5606 5608 5610 5612 5615 5619 5622 5625 5629 5632 5636 5639 5643 5646 5650 5653 5657 5660 5663 5667 5670 5673 5677 5680 5682 5685 5687 5690 5692 5693 5695 5696 5698 5699 5700 5701 5702 5702 5702 5703 5703 5703 5703
5598 5600 5603 5605 5607 5610 5613 5616 5619 5622 5625 5628 5632 5636 5639 5643 5646 5649 5652 5655 5659 5662 5665 5668 5670 5673 5675 5678 5680 5682 5684 5685 5687 5688 5689 5690 5691 5692 5692 5692 5692 5693 5693 5693
5593 5595 5596 5599 5601 5603 5606 5609 5612 5615 5619 5622 5626 5629 5632 5635 5639 5642 5644 5648 5650 5653 5656 5659 5661 5664 5666 5668 5671 5672 5674 5676 5677 5678 5679 5680 5681 5681 5682 5682 5682 5683 5683 5682
5586 5588 5590 5592 5595 5597 5600 5603 5606 5609 5612 5615 5618 5622 5625 5628 5631 5634 5637 5640 5642 5645 5647 5650 5653 5655 5657 5659 5661 5663 5664 5666 5667 5668 5669 5670 5670 5671 5672 5672 5672 5672 5672 5672